Date,TemperatureHighF,TemperatureAvgF,TemperatureLowF,DewpointHighF,DewpointAvgF,DewpointLowF,HumidityHigh,HumidityAvg,HumidityLow,PressureMaxIn,PressureMinIn,WindSpeedMaxMPH,WindSpeedAvgMPH,GustSpeedMaxMPH,PrecipitationSumIn
2013-2-4,25.8,21.7,16.7,22.2,18.9,12.7,93,89,83,30.04,29.82,6,2,12,0.01
2013-2-5,29.8,23.9,14.1,27.8,21.2,12.0,93,90,77,29.98,29.80,8,4,19,0.05
2013-2-6,34.2,28.7,23.8,26.6,22.7,20.9,91,79,61,30.24,29.99,6,2,12,0.07
2013-2-7,41.4,32.8,26.6,32.5,27.4,22.6,94,81,66,30.18,29.75,2,1,10,0.08
2013-2-8,33.7,30.4,26.0,32.2,26.8,21.3,96,87,78,30.32,29.75,13,7,22,0.01
2013-2-9,35.4,26.7,17.3,26.3,21.7,15.1,93,81,68,30.40,30.19,4,1,15,0.00
2013-2-10,47.3,40.3,29.3,45.7,35.9,23.9,95,84,72,30.18,29.59,18,4,22,0.08
2013-2-11,48.5,36.8,30.8,46.0,30.5,24.1,93,78,72,29.94,29.55,26,13,34,0.02
2013-2-12,34.4,30.4,28.2,27.9,24.7,22.6,85,79,72,30.07,29.91,17,6,23,0.00
2013-2-13,43.4,32.8,22.4,32.0,26.7,20.2,92,79,60,29.92,29.71,10,3,13,0.00
2013-2-14,40.6,35.9,32.7,35.4,31.0,24.3,90,82,68,29.91,29.68,19,8,25,0.00
2013-2-15,33.0,28.2,22.4,26.3,22.1,16.7,88,78,59,30.13,29.90,13,5,14,0.00
2013-2-16,24.1,20.3,13.8,19.7,14.8,6.6,88,79,56,30.11,30.03,15,6,18,0.00
2013-2-17,29.2,20.8,14.2,16.3,13.4,10.4,90,74,51,30.21,30.10,9,3,12,0.00
2013-2-18,53.3,37.3,22.0,42.2,28.8,15.0,91,72,58,30.14,29.48,34,6,34,0.15
2013-2-19,44.6,22.6,15.1,41.7,18.5,10.1,92,84,76,30.04,29.42,28,13,34,0.06
2013-2-20,22.6,18.3,13.2,18.2,14.4,9.8,88,84,81,30.30,30.04,18,9,19,0.00
2013-2-21,27.0,23.5,20.3,22.0,18.7,15.8,85,81,77,30.36,30.09,12,4,16,0.00
2013-2-22,34.1,28.3,21.1,32.8,26.0,17.3,95,91,82,30.09,29.84,16,5,18,0.05
2013-2-23,30.2,27.4,25.2,25.1,21.8,19.9,86,79,69,29.93,29.88,14,8,17,0.01
2013-2-24,35.2,28.4,23.0,25.9,22.4,19.5,88,78,66,30.14,29.92,12,4,15,0.07
2013-2-25,41.4,31.9,22.0,31.6,26.1,19.1,90,79,63,30.18,29.98,8,2,10,0.02
2013-2-26,34.0,32.7,30.7,32.4,29.4,25.7,95,87,75,29.98,29.41,18,6,19,0.36
2013-2-27,34.7,32.9,31.4,32.9,31.6,29.9,96,95,92,29.58,29.41,12,4,15,0.23
2013-2-28,37.5,33.9,31.4,33.4,31.5,29.5,96,91,83,29.93,29.56,12,6,14,0.05